Regional Weather Roundup
Issued by NWS Green Bay, WI

Current Version | Previous Version | Text Only | Print | Product List | Glossary On
Versions: 1 2 3 4 5 6 7 8 9 10 11 12 13 14 15 16 17 18 19 20 21 22 23 24 25 26 27 28 29 30 31 32 33 34 35 36 37 38 39 40 41 42 43 44 45 46 47 48 49 50
000
ASUS43 KGRB 280911
RWRGRB

NORTH-CENTRAL AND NORTHEAST WISCONSIN REGIONAL WEATHER ROUNDUP
NATIONAL WEATHER SERVICE GREEN BAY WI
400 AM CDT TUE JUN 28 2022

WIZ005-009-010>012-018-019-281000-
NORTH CENTRAL WISCONSIN

CITY           SKY/WX    TMP DP  RH WIND       PRES   REMARKS
IRONWOOD       PTCLDY    63  52  67 SW10      30.04F
MANITOWISH WTR PTCLDY    60  52  75 SW7       30.08F
ARBOR VITAE    NOT AVBL
EAGLE RIVER    CLEAR     58  50  76 SW5       30.09F
LAND O LAKES   CLEAR     51  49  96 CALM      30.10F
RHINELANDER    CLEAR     59  51  75 SW9       30.11F
PHILLIPS       MOCLDY    57  52  84 SW5       30.10S
ANTIGO         CLEAR     56  51  82 SW7       30.14F
TOMAHAWK       NOT AVBL
MERRILL        NOT AVBL
$$

WIZ013-073-281000-
NORTHEAST WISCONSIN

CITY           SKY/WX    TMP DP  RH WIND       PRES   REMARKS
IRON MOUNTAIN  CLEAR     58  51  78 CALM      30.07F
MARINETTE      CLEAR     58  50  75 SW7       30.11F
OCONTO         CLEAR     48  48 100 CALM      30.11F
$$

WIZ017-030-035>037-045-281000-
CENTRAL WISCONSIN

CITY           SKY/WX    TMP DP  RH WIND       PRES   REMARKS
MEDFORD          N/A    N/A N/A N/A MISG        N/A
WAUSAU         CLEAR     58  51  78 VRB3      30.11F
MOSINEE        CLEAR     55  50  82 S7        30.14F
MARSHFIELD     CLEAR     55  51  86 SW5       30.13F
WISC RAPIDS    CLEAR     56  52  86 S5        30.14F
STEVENS POINT  NOT AVBL
WAUPACA        CLEAR     54  51  89 CALM      30.15F
SHAWANO        CLEAR     59  52  77 CALM      30.13S
CLINTONVILLE   NOT AVBL
WAUTOMA        PTCLDY    50  48  93 CALM      30.16F
$$

WIZ038-039-048-051-281000-
FOX VALLEY

CITY           SKY/WX    TMP DP  RH WIND       PRES   REMARKS
NWS GREEN BAY  CLEAR     58  51  78 CALM      30.14S
APPLETON       NOT AVBL
OSHKOSH        CLEAR     58  52  80 S9        30.15S
FOND DU LAC    CLEAR     58  48  69 S6        30.17S
$$

WIZ022-050-052-281000-
EAST CENTRAL WISCONSIN

CITY           SKY/WX    TMP DP  RH WIND       PRES   REMARKS
EPHRAIM        FAIR      57  50  77 CALM      30.10
WASHINGTON ISL FAIR      61  55  81 SW7       30.09F
STURGEON BAY   CLEAR     57  49  74 S7        30.13F
MANITOWOC      CLEAR     53  50  89 CALM      30.16S
SHEBOYGAN      CLEAR     54  51  90 SW6       30.17S
$$

LMZ563-521-522-541>543-281000-
LAKESHORE

STATION/POSITION TIME  TEMP    WIND        PRES    VSBY  WAVE
                       AIR SEA DIR/SP/G                  HT/PER
                 (UTC) (F)     (DEG/KT/KT) (MB)    (MI)  (FT/S)
SHEBOYGAN LKSHOR 0900   57     210/  8/  9 1022.0S
KEWAUNEE LKSHORE 0830   51      CALM  /  2 1019.0F
N MID LAKE BUOY  0850   57 54  210/ 14/ 17 1019.2F         3/ 5
GREEN BAY WEST   0830   63      CALM  /  4 1019.1F
MENOMINEE LKSHOR 0830   62 65  210/ 10/ 12 1018.4F
$$



USA.gov is the U.S. government's official web portal to all federal, state and local government web resources and services.